Preview of NWS' New Version of Forecast
This preview is not operational and should not be used for support decisions.

Regional Weather Roundup (RWR)

Issued by National Weather Service (NWS)

                            
000
ASUS43 KDMX 250201
RWRIA 

WEATHER ROUNDUP FOR IOWA
NATIONAL WEATHER SERVICE DES MOINES IA
900 PM CDT MON JUN 24 2019

NOTE: "FAIR" INDICATES FEW OR NO CLOUDS BELOW 12,000 FEET WITH NO
SIGNIFICANT WEATHER AND/OR OBSTRUCTIONS TO VISIBILITY.

* - THESE STATIONS ARE NOT NWS STATIONS...THUS NOT UNDER NWS
QUALITY CONTROL.  THEY ALSO DO NOT REPORT WEATHER SUCH 
AS PRECIPITATION OR FOG.  

IAZ001>003-012>014-020>022-031>034-043>046-250300-
   NORTHWEST IOWA
  
CITY           SKY/WX    TMP DP  RH WIND       PRES   REMARKS
CARROLL *      CLEAR     70  59  68 SW9       29.74F                  
CHEROKEE *     CLEAR     64  63  97 CALM      29.73S                  
DENISON *      CLEAR     72  59  64 SW5       29.77S                  
LE MARS *      CLEAR     68  59  73 SE5       29.72S                  
SHELDON *      PTCLDY    68  64  88 S6        29.71S                  
SIOUX CITY     CLEAR     69  59  70 S7        29.73R                  
SPENCER        CLEAR     69  56  62 SW9       29.72R                  
STORM LAKE *   CLEAR     68  55  64 W6        29.71F                  
$$
 
IAZ055>058-069>071-079>083-090>094-250300-
   SOUTHWEST IOWA
  
CITY           SKY/WX    TMP DP  RH WIND       PRES   REMARKS
ATLANTIC *     CLEAR     70  63  78 SW5       29.77S                  
AUDUBON *      CLEAR     70  59  68 CALM      29.78S                  
CLARINDA *     CLEAR     70  63  78 SW3       29.82R                  
COUNCIL BLFS * CLEAR     73  55  53 SW7       29.77R                  
CRESTON *      CLEAR     68  59  73 SW7       29.80S                  
HARLAN  *      CLEAR     68  61  77 SW6       29.77S                  
LAMONI         CLEAR     71  59  65 SW9       29.81R                  
RED OAK *      CLEAR     70  61  73 SW5       29.79S                  
SHENANDOAH *   CLEAR     72  61  68 SW8       29.79R                  
$$
 
IAZ047>049-059>061-072>074-084-250300-
   CENTRAL IOWA
  
CITY           SKY/WX    TMP DP  RH WIND       PRES   REMARKS
AMES           CLEAR     64  62  93 SW3       29.74S                  
ANKENY *       CLEAR     68  61  77 CALM      29.77R                  
BOONE *        CLEAR     66  66 100 SW3       29.74S                  
CHARITON *     CLEAR     72  61  68 SW8       29.79R                  
DES MOINES     PTCLDY    71  57  61 SW7       29.75R                  
GRINNELL*      CLEAR     64  59  85 SW6       29.77F                  
KNOXVILLE *    PTCLDY    70  59  68 SW6       29.77R                  
MARSHALLTOWN   CLEAR     64  58  80 SW9       29.74R                  
NEWTON *       CLEAR     64  63  94 MISG      29.76S                  
PELLA *          N/A     68  57  67 CALM      29.78R                  
$$
 
IAZ004>006-015-016-023>025-035-036-250300-
   NORTH CENTRAL IOWA
  
CITY           SKY/WX    TMP DP  RH WIND       PRES   REMARKS
ALGONA *       MOCLDY    70  63  78 SW8       29.70S                  
CLARION *      CLEAR     66  63  88 SW6       29.72S                  
ESTHERVILLE    CLEAR     69  59  70 SW8       29.70R                  
FORT DODGE *   PTCLDY    67  62  84 S5        29.74R                  
MASON CITY     PTCLDY    68  56  65 SW5       29.73R                  
FOREST CITY *  FAIR      70  55  60 CALM      29.71S                  
IOWA FALLS *   FAIR      67  60  78 SW5       29.74S                  
$$

IAZ007>011-017>019-026>030-037>042-050>054-066-250300-
   NORTHEAST IOWA
  
CITY           SKY/WX    TMP DP  RH WIND       PRES   REMARKS
CEDAR RAPIDS   FAIR      67  58  72 SW7       29.73R                  
CHARLES CITY * FAIR      68  55  64 W7        29.72R                  
CLINTON *      FAIR      67  61  81 SW12      29.74R                  
DECORAH *      FAIR      64  61  88 CALM      29.70R                  
DUBUQUE        CLOUDY    65  60  84 N6        29.72R                  
MONTICELLO *   FAIR      68  61  77 SW6       29.72R                  
OELWEIN *      FAIR      66  61  82 W9        29.72R                  
WATERLOO       FAIR      69  57  65 W6        29.71R                  
$$
 
IAZ064-065-067-068-078-250300-
   EAST CENTRAL IOWA
  
CITY           SKY/WX    TMP DP  RH WIND       PRES   REMARKS
DAVENPORT      FAIR      69  59  70 SW7       29.76R                  
IOWA CITY      FAIR      69  58  67 SW6       29.75R                  
MT. PLEASANT * CLEAR     68  61  77 SW7       29.79R                  
MUSCATINE *    FAIR      72  59  64 SW8       29.76R                  
QUAD CITIES    FAIR      72  57  59 SW8       29.74R                  
$$
 
IAZ062-063-075>077-085>089-095>099-250300-
   SOUTHEAST IOWA
  
CITY           SKY/WX    TMP DP  RH WIND       PRES   REMARKS
BURLINGTON     CLEAR     69  59  70 SW6       29.79R                  
FAIRFIELD *    CLEAR     68  61  77 SW7       29.78R                  
FORT MADISON * CLEAR     72  61  68 SW6       29.81R                  
KEOKUK *       CLEAR     68  59  73 SW7       29.80R                  
OSKALOOSA *    FAIR      69  59  72 SW7       29.78R                  
OTTUMWA        CLEAR     69  59  70 SW7       29.78R                  
WASHINGTON *   CLEAR     70  64  83 SW9       29.75S                  
$$

ABBREVIATIONS USED IN REMARKS
   TC - TEMPERATURES IN CELSIUS
  WCI - WIND CHILL INDEX
   HX - HEAT INDEX
  VSB - VISIBILITY  
$$